Ardmore, OK

3:56 AM CDT on September 24, 2017 (GMT -0500)
Ardmore Municipal

Weather History for KADM - February, 2013

Change the Weather History Date:

Tuesday, February 5, 2013

  Actual Average Record
Temperature  
Mean Temperature 48 °F -  
Max Temperature 51 °F 52 °F 69 °F (1999)
Min Temperature 44 °F 34 °F 1 °F (2011)
Degree Days  
Heating Degree Days 18    
Moisture  
Dew Point 50 °F    
Average Humidity 100    
Maximum Humidity 100    
Minimum Humidity 93    
Precipitation  
Precipitation 0.00 in - - ()
Sea Level Pressure  
Sea Level Pressure 29.95 in    
Wind  
Wind Speed 2 mph (East)    
Max Wind Speed 7 mph    
Max Gust Speed -    
Visibility 1 miles    
Events Fog    
Averages and records for this station are not official NWS values.
T = Trace of Precipitation, MM = Missing Value Source: NWS Daily Summary

Daily Weather History Graph

Daily Weather History Graph

Search for Another Location

Airport or City:

Trip Planner

Search our weather history database for the weather conditions in past years. The results will help you decide how hot, cold, wet, or windy it might be!

Date:

Astronomy

Feb. 05, 2013 Rise Set
Actual Time 7:22 AM CST 6:02 PM CST
Civil Twilight 6:56 AM CST 6:28 PM CST
Nautical Twilight 6:26 AM CST 6:58 PM CST
Astronomical Twilight 5:56 AM CST 7:27 PM CST
Moon 3:00 AM CST (2/5) 1:25 PM CST (2/5)
Length of Visible Light 11h 32m
Length of Day
10h 40m
Waning Crescent, 26% of the Moon is Illuminated
Feb 5
Waning Crescent
Feb 10
New
Feb 17
First Quarter
Feb 25
Full
Mar 4
Last Quarter

Hourly Weather History & Observations

Time (CST) Temp. Windchill Dew Point Humidity Pressure Visibility Wind Dir Wind Speed Gust Speed Precip Events Conditions
12:15 AM 46.4 °F - 44.6 °F 93% 29.93 in 5.0 mi Calm Calm - N/A   Scattered Clouds
12:35 AM 44.6 °F - 44.6 °F 100% 29.93 in 0.5 mi Calm Calm - N/A Fog Fog
12:55 AM 44.6 °F - 44.6 °F 100% 29.93 in 0.2 mi Calm Calm - N/A Fog Fog
1:15 AM 46.4 °F 44.3 °F 46.4 °F 100% 29.92 in 1.2 mi East 4.6 mph - N/A   Overcast
1:35 AM 50.0 °F - 50.0 °F 100% 29.92 in 3.0 mi ENE 3.5 mph - N/A   Overcast
1:55 AM 50.0 °F - 50.0 °F 100% 29.92 in 0.8 mi East 3.5 mph - N/A   Overcast
2:15 AM 50.0 °F - 50.0 °F 100% 29.92 in 0.5 mi East 4.6 mph - N/A Fog Fog
2:35 AM 50.0 °F - 50.0 °F 100% 29.91 in 1.0 mi East 6.9 mph - N/A   Overcast
2:55 AM 50.0 °F - 50.0 °F 100% 29.91 in 0.5 mi East 4.6 mph - N/A Fog Fog
3:15 AM 50.0 °F - 50.0 °F 100% 29.91 in 0.5 mi ESE 4.6 mph - N/A Fog Fog
3:35 AM 50.0 °F - 50.0 °F 100% 29.91 in 0.5 mi East 5.8 mph - N/A Fog Fog
3:55 AM 50.0 °F - 50.0 °F 100% 29.91 in 0.5 mi ESE 3.5 mph - N/A Fog Fog
4:15 AM 50.0 °F - 50.0 °F 100% 29.92 in 0.5 mi East 5.8 mph - N/A Fog Fog
4:35 AM 50.0 °F - 50.0 °F 100% 29.92 in 0.5 mi East 3.5 mph - N/A Fog Fog
4:55 AM 50.0 °F - 50.0 °F 100% 29.92 in 0.5 mi East 3.5 mph - N/A Fog Fog
5:15 AM 50.0 °F - 50.0 °F 100% 29.94 in 0.5 mi East 5.8 mph - N/A Fog Fog
5:35 AM 50.0 °F - 50.0 °F 100% 29.94 in 0.5 mi ESE 3.5 mph - N/A Fog Fog
10:35 PM 51.8 °F - 51.8 °F 100% 30.03 in 0.5 mi Calm Calm - N/A Fog Fog
10:55 PM 51.8 °F - 51.8 °F 100% 30.03 in 0.2 mi Calm Calm - N/A Fog Fog
11:15 PM 51.8 °F - 51.8 °F 100% 30.03 in 0.2 mi East 3.5 mph - N/A Fog Fog
11:35 PM 51.8 °F - 51.8 °F 100% 30.03 in 0.2 mi Calm Calm - N/A Fog Fog
11:55 PM 51.8 °F - 51.8 °F 100% 30.03 in 0.2 mi Calm Calm - N/A Fog Fog